Wind_Speed
11 10 9 8 7 6 6 5 4 3 2 2 2 2 1 1 1 1 1 0 1 1 1 1 2 3 4 5 6 6 6 7 7 7 7 7 7 7 7 7 7 7 7
11 10 9 8 7 6 6 5 4 3 3 2 2 2 2 1 1 1 1 1 1 1 1 2 3 3 3 5 6 6 7 7 7 7 8 7 7 7 7 7 8 8 8
11 10 10 8 7 6 6 5 4 3 3 3 2 2 2 1 1 1 0 1 1 2 2 2 3 3 4 5 6 6 7 7 7 7 7 7 7 7 8 8 8 9 9
10 10 10 8 7 7 6 5 4 3 3 3 3 2 2 1 1 0 0 1 1 2 3 3 4 4 5 6 6 7 7 7 8 8 7 8 8 8 8 8 9 9 9
10 9 9 8 7 7 6 5 5 4 4 3 3 2 2 1 1 1 1 1 2 2 3 4 4 4 5 6 7 8 8 8 8 8 8 9 9 8 8 9 9 9 10
9 8 8 7 7 7 7 6 5 5 4 3 3 2 2 2 1 1 2 2 2 3 3 4 5 4 5 6 7 8 8 9 8 8 8 8 8 9 9 9 9 9 10
8 8 7 7 7 7 7 6 6 5 4 3 2 2 2 2 2 2 3 3 3 3 4 4 4 4 5 5 6 7 8 9 9 9 9 8 8 9 9 9 10 10 10
8 7 7 7 6 7 7 7 6 6 5 4 3 2 2 2 2 3 3 2 3 3 3 3 3 4 5 5 6 7 7 8 8 9 10 9 9 10 9 9 10 10 11
8 7 7 7 6 6 6 6 6 5 5 4 3 3 3 3 3 3 2 1 2 2 3 3 4 4 5 5 6 6 7 8 8 9 9 9 9 9 9 9 9 10 11
7 7 7 7 6 6 6 6 5 5 4 4 4 4 4 3 3 2 2 1 2 2 3 3 4 4 5 5 5 6 6 7 7 8 8 8 8 8 8 7 7 9 10
7 7 7 7 6 6 6 6 5 5 5 5 4 4 4 4 3 3 2 2 2 3 3 4 4 4 4 4 5 5 6 6 6 7 7 8 8 7 7 7 6 8 8
6 6 7 7 7 6 6 6 5 6 6 6 5 5 5 4 4 3 3 3 3 3 4 4 4 4 4 4 4 5 6 7 7 6 7 7 7 7 6 6 6 7 7
7 6 7 7 7 6 6 6 6 6 6 6 6 5 5 4 4 3 3 3 4 4 4 4 4 4 4 4 4 5 5 5 6 6 6 6 6 6 7 7 7 7 7
7 6 7 7 8 8 7 6 6 6 6 6 6 6 5 5 4 4 4 4 4 4 4 4 4 4 5 5 5 5 5 5 6 6 6 6 5 7 7 8 7 7 7
7 7 8 8 8 8 8 7 7 7 7 7 7 6 6 6 5 5 5 4 4 4 4 4 5 5 6 5 5 6 6 6 6 6 7 7 7 6 7 8 8 8 7
8 8 8 9 8 8 8 7 7 7 7 7 7 7 7 6 5 5 5 5 5 4 4 4 4 5 5 5 5 6 7 7 7 7 7 7 7 7 8 8 8 8 8
9 8 8 9 8 8 7 7 7 7 7 7 7 7 6 7 6 6 6 6 6 6 5 5 4 4 5 5 5 6 7 7 7 8 8 8 8 8 8 9 9 8 8
9 9 9 8 8 7 6 7 8 8 8 7 7 6 6 7 6 6 7 7 7 7 6 6 5 5 5 5 5 6 7 7 8 8 9 9 9 9 9 9 8 9 10
10 9 9 9 8 8 7 7 8 9 8 8 8 7 7 7 7 6 7 7 7 7 6 6 6 6 6 6 5 5 7 7 7 8 9 9 9 9 9 9 9 10 10
10 9 9 8 8 8 8 8 9 8 8 8 8 8 8 7 7 7 7 7 7 7 6 7 7 6 6 6 6 5 5 6 6 7 8 8 9 9 9 9 9 10 11
10 9 8 8 8 8 8 9 9 9 9 9 9 9 8 8 8 7 7 6 7 7 6 6 6 7 7 6 6 5 5 5 6 7 8 8 9 9 9 9 9 9 10
11 10 9 9 10 9 9 10 9 9 10 10 9 9 9 9 9 8 8 7 7 7 7 7 7 7 7 7 7 7 6 6 6 7 8 9 9 9 9 9 9 9 9
11 10 10 10 10 10 10 10 10 10 10 10 9 9 9 9 9 9 9 8 8 8 8 8 8 8 8 7 8 8 8 7 7 8 8 8 8 9 9 9 8 8 8
11 10 10 10 11 11 11 11 11 10 10 10 10 10 9 9 9 10 9 9 9 9 8 8 8 9 9 8 8 8 8 7 7 8 8 8 8 9 9 9 9 8 8
11 11 11 11 12 12 12 11 11 11 11 11 11 11 10 10 10 10 10 10 10 9 9 8 8 8 8 9 9 8 8 8 8 8 9 9 9 10 10 10 10 10 10
12 12 12 12 13 14 13 13 13 12 12 12 12 12 12 11 11 11 10 10 10 10 10 10 9 9 9 9 9 9 9 9 9 9 9 10 10 10 10 10 10 11 11
Wind_Direction
28 29 32 29 29 30 29 30 32 38 43 58 73 86 99 117 127 139 158 201 204 193 177 218 229 237 229 230 223 222 223 227 227 228 225 228 233 228 229 234 233 239 241
26 26 29 28 28 28 28 26 27 38 45 53 64 73 87 99 107 112 149 206 221 224 223 224 241 244 237 230 224 225 225 226 231 230 225 228 230 228 232 237 239 245 246
23 24 27 28 26 27 27 24 22 33 39 48 59 70 83 93 97 95 195 212 212 223 227 226 237 243 235 227 223 225 227 224 230 229 232 227 232 231 234 238 244 246 245
18 19 24 28 26 25 26 25 25 34 32 37 48 55 58 64 78 47 262 247 234 230 230 233 237 243 240 231 228 226 228 228 228 228 230 234 236 234 234 239 243 245 244
14 15 21 23 25 27 27 27 30 33 33 34 40 45 47 43 10 304 284 281 262 243 241 241 244 247 245 236 234 231 230 233 232 230 234 237 236 231 232 238 242 244 241
9 11 17 19 20 24 26 25 27 26 25 28 29 33 32 26 8 328 292 277 269 259 253 253 247 251 249 244 240 237 233 232 233 233 237 238 237 235 233 238 240 245 243
6 7 12 15 17 19 20 20 21 20 19 22 25 23 17 7 351 330 305 278 261 259 258 257 250 254 253 246 241 238 234 233 235 235 238 240 239 236 237 240 242 246 248
2 3 8 11 13 15 17 16 18 19 20 19 19 14 7 357 347 338 321 276 243 248 251 256 261 259 252 245 236 235 236 235 238 241 240 241 245 240 241 242 242 242 243
359 2 4 2 4 8 11 14 17 20 18 12 8 4 351 343 345 350 344 274 239 244 253 259 265 262 250 244 242 238 234 235 238 242 244 241 239 239 236 237 239 239 241
357 359 2 359 358 0 5 12 14 14 8 358 352 347 336 331 332 336 342 307 266 258 262 265 266 262 247 242 240 235 234 236 239 238 237 236 233 234 231 234 242 246 243
356 360 1 357 355 355 358 3 5 4 358 350 341 336 330 325 317 318 315 307 286 273 274 277 271 255 241 237 235 229 231 235 241 235 234 236 231 235 243 247 250 251 247
346 355 360 355 352 350 351 354 356 356 351 346 339 333 328 323 312 306 306 297 283 278 280 280 272 253 239 237 227 226 231 234 235 232 234 241 245 240 243 250 255 251 245
337 339 347 349 348 344 343 343 347 349 346 343 339 332 325 315 311 300 302 297 288 283 277 274 265 245 242 231 224 226 225 224 229 232 232 242 248 252 253 254 253 253 250
331 327 327 333 339 336 336 333 337 341 335 335 334 326 318 314 314 307 304 299 290 287 282 277 265 246 245 235 231 233 230 227 231 237 235 241 248 253 253 251 252 252 254
318 319 319 323 332 335 336 329 330 334 333 330 329 324 315 312 315 308 303 300 295 291 285 284 273 251 243 236 233 236 236 233 230 237 241 242 244 247 251 253 254 254 255
307 309 313 316 321 329 333 328 332 331 328 328 327 321 316 310 309 303 300 301 290 287 283 284 286 268 256 249 238 236 235 237 236 238 243 243 239 246 253 257 255 255 257
296 300 306 310 312 315 327 331 331 329 329 333 329 324 317 315 305 297 295 290 288 284 280 281 286 281 262 252 248 238 234 237 239 240 244 246 244 251 260 258 255 254 257
289 293 300 306 307 306 313 330 334 330 324 329 332 329 321 315 307 298 290 285 282 280 276 275 278 278 262 254 247 242 240 242 243 244 245 246 246 252 256 259 256 256 256
287 291 296 296 302 301 310 323 328 331 326 327 330 327 320 316 313 308 297 288 281 277 275 275 275 276 268 264 254 244 245 246 246 247 244 242 245 248 254 257 255 258 258
284 287 294 297 305 310 314 319 325 327 324 326 328 327 321 316 314 312 306 295 284 277 274 274 271 271 273 268 260 251 247 249 250 249 246 244 246 249 257 259 256 255 256
283 286 288 293 300 307 310 313 316 319 320 317 317 316 315 311 309 306 301 298 289 284 280 278 272 270 273 271 261 253 250 252 248 247 246 245 246 247 254 255 258 257 260
280 281 282 288 293 300 304 307 307 312 317 319 317 314 310 309 304 301 297 293 291 287 285 280 275 275 271 264 262 262 261 257 255 252 250 249 248 245 251 252 259 262 266
276 280 281 285 290 294 298 299 300 304 309 314 315 314 310 307 304 300 296 290 285 283 283 280 275 275 270 267 269 272 272 269 263 260 258 257 256 254 254 257 265 267 275
275 277 280 282 289 292 294 295 297 300 304 307 308 308 307 306 304 297 292 289 286 285 285 282 277 277 269 266 269 270 268 269 268 267 264 258 262 262 263 268 273 272 274
273 276 279 280 285 291 292 292 294 296 298 301 303 304 303 300 301 300 292 287 285 284 283 283 279 280 272 267 268 266 264 264 263 261 262 262 263 265 263 267 270 270 272
277 277 277 280 285 289 291 292 291 292 294 297 299 300 301 299 298 298 290 283 281 281 279 280 280 280 275 270 265 265 264 262 263 262 264 264 265 266 267 267 268 271 271
Height
5892 5890 5889 5888 5886 5886 5885 5884 5883 5882 5881 5881 5880 5880 5879 5879 5878 5878 5878 5878 5877 5877 5876 5876 5876 5876 5876 5877 5877 5878 5878 5879 5879 5880 5881 5881 5882 5882 5883 5884 5885 5885 5886
5893 5891 5889 5888 5887 5886 5885 5884 5883 5882 5881 5881 5880 5879 5879 5879 5878 5878 5877 5877 5877 5876 5876 5876 5876 5876 5876 5876 5876 5877 5877 5878 5878 5879 5879 5880 5880 5881 5882 5883 5884 5885 5885
5893 5891 5889 5888 5887 5886 5885 5884 5883 5882 5881 5881 5880 5879 5879 5878 5878 5877 5877 5876 5876 5876 5876 5875 5875 5875 5875 5875 5875 5876 5876 5876 5877 5878 5878 5879 5879 5880 5881 5882 5883 5883 5884
5893 5891 5890 5888 5887 5886 5885 5884 5883 5882 5881 5880 5880 5879 5878 5878 5877 5876 5876 5875 5875 5875 5875 5874 5874 5874 5874 5874 5874 5874 5875 5875 5876 5876 5877 5877 5878 5879 5880 5881 5881 5882 5882
5893 5892 5890 5889 5887 5886 5885 5884 5883 5882 5881 5880 5879 5878 5878 5877 5876 5876 5875 5874 5874 5874 5874 5873 5873 5873 5873 5873 5873 5873 5874 5874 5874 5875 5875 5876 5877 5878 5879 5879 5880 5880 5881
5893 5892 5890 5889 5888 5886 5885 5884 5883 5881 5881 5880 5879 5878 5877 5876 5876 5875 5874 5873 5873 5873 5873 5872 5872 5872 5872 5871 5872 5872 5872 5872 5873 5873 5874 5875 5875 5876 5877 5878 5878 5879 5879
5893 5891 5890 5889 5888 5886 5885 5883 5882 5881 5880 5879 5878 5877 5876 5876 5875 5873 5872 5871 5871 5871 5871 5871 5871 5870 5870 5870 5870 5870 5871 5871 5871 5872 5873 5873 5874 5875 5875 5876 5877 5877 5878
5893 5891 5890 5889 5887 5886 5885 5883 5882 5881 5880 5879 5878 5877 5876 5875 5874 5872 5869 5868 5869 5870 5870 5870 5869 5869 5868 5868 5868 5869 5869 5870 5870 5870 5871 5872 5872 5872 5873 5874 5875 5875 5876
5893 5891 5890 5889 5887 5886 5884 5883 5882 5880 5879 5878 5877 5876 5875 5874 5873 5871 5869 5868 5868 5869 5869 5868 5868 5867 5867 5867 5867 5867 5867 5868 5868 5869 5869 5870 5870 5870 5871 5872 5872 5873 5874
5893 5891 5890 5888 5887 5885 5884 5882 5881 5880 5879 5878 5877 5875 5874 5873 5872 5871 5869 5868 5868 5868 5867 5867 5866 5866 5865 5865 5865 5866 5866 5866 5867 5867 5868 5868 5868 5869 5869 5870 5871 5871 5872
5893 5891 5890 5888 5886 5885 5883 5882 5881 5880 5878 5877 5876 5875 5873 5872 5871 5870 5869 5868 5868 5867 5866 5866 5865 5864 5864 5864 5864 5864 5865 5865 5866 5866 5866 5867 5867 5867 5868 5868 5869 5869 5870
5892 5891 5889 5888 5886 5884 5883 5881 5880 5879 5878 5876 5875 5874 5872 5871 5870 5869 5868 5867 5867 5866 5865 5864 5864 5863 5863 5863 5863 5863 5863 5864 5864 5864 5865 5865 5865 5866 5866 5867 5868 5868 5868
5892 5890 5889 5887 5886 5884 5883 5881 5880 5878 5877 5875 5874 5873 5871 5870 5869 5868 5867 5866 5865 5865 5864 5863 5862 5862 5862 5862 5861 5862 5862 5862 5863 5863 5863 5864 5864 5864 5865 5865 5866 5866 5866
5891 5890 5888 5887 5885 5884 5882 5880 5879 5878 5876 5875 5873 5872 5870 5869 5868 5867 5866 5865 5864 5864 5863 5862 5861 5861 5861 5861 5860 5861 5861 5861 5862 5862 5862 5863 5863 5863 5864 5864 5864 5864 5865
5890 5889 5888 5886 5884 5883 5881 5880 5878 5877 5875 5874 5872 5871 5869 5868 5867 5866 5865 5864 5863 5863 5862 5861 5860 5860 5860 5859 5859 5859 5860 5860 5860 5861 5861 5861 5862 5862 5863 5863 5863 5863 5863
5889 5888 5887 5885 5883 5882 5880 5878 5877 5876 5874 5872 5871 5869 5868 5866 5865 5864 5863 5863 5862 5861 5861 5860 5859 5859 5858 5858 5858 5858 5858 5859 5859 5859 5860 5860 5860 5861 5861 5861 5861 5861 5862
5887 5886 5885 5883 5882 5880 5879 5877 5876 5874 5873 5871 5870 5868 5866 5865 5864 5863 5862 5861 5861 5860 5859 5859 5858 5858 5857 5857 5857 5856 5857 5857 5858 5858 5858 5858 5859 5859 5859 5860 5860 5860 5860
5886 5884 5883 5882 5880 5879 5878 5876 5875 5873 5872 5870 5868 5867 5865 5864 5863 5861 5860 5860 5859 5858 5858 5858 5857 5856 5856 5856 5855 5855 5855 5856 5856 5857 5857 5857 5857 5857 5857 5858 5858 5858 5858
5884 5882 5881 5880 5879 5878 5876 5875 5874 5872 5870 5869 5867 5866 5864 5863 5862 5860 5859 5858 5857 5857 5857 5856 5856 5855 5855 5854 5854 5853 5854 5854 5854 5855 5855 5855 5856 5856 5856 5856 5856 5856 5856
5882 5881 5880 5879 5877 5876 5875 5874 5873 5871 5869 5868 5866 5865 5863 5862 5860 5859 5858 5857 5856 5855 5855 5855 5854 5853 5853 5853 5852 5852 5852 5852 5853 5853 5853 5854 5854 5854 5854 5854 5854 5854 5855
5879 5879 5878 5877 5876 5875 5874 5873 5871 5870 5868 5866 5865 5863 5862 5861 5859 5858 5857 5856 5855 5854 5853 5853 5852 5852 5851 5851 5851 5851 5851 5851 5851 5851 5851 5852 5852 5852 5853 5853 5853 5853 5852
5877 5877 5876 5875 5874 5873 5872 5871 5869 5868 5866 5865 5863 5862 5860 5859 5858 5857 5856 5854 5853 5853 5852 5852 5851 5850 5849 5849 5849 5849 5849 5850 5849 5849 5849 5850 5850 5850 5850 5851 5851 5850 5851
5875 5874 5874 5873 5872 5871 5870 5869 5867 5866 5864 5863 5862 5860 5859 5857 5856 5855 5854 5853 5852 5852 5851 5850 5849 5848 5848 5848 5848 5848 5848 5848 5848 5848 5847 5847 5848 5848 5848 5848 5848 5848 5848
5872 5872 5871 5870 5870 5869 5867 5866 5865 5864 5862 5861 5860 5858 5857 5855 5854 5853 5852 5851 5850 5850 5849 5848 5847 5847 5846 5846 5846 5846 5846 5845 5846 5846 5846 5846 5846 5846 5846 5846 5846 5846 5846
5869 5869 5868 5868 5867 5866 5865 5864 5862 5861 5860 5858 5857 5856 5854 5853 5852 5851 5849 5849 5848 5847 5847 5846 5845 5844 5844 5844 5844 5844 5843 5844 5844 5844 5844 5844 5844 5844 5844 5844 5844 5844 5844
5867 5866 5865 5865 5864 5863 5862 5861 5860 5858 5857 5855 5854 5853 5852 5851 5849 5848 5847 5846 5845 5845 5844 5844 5843 5842 5842 5842 5842 5841 5841 5842 5842 5842 5842 5842 5842 5842 5842 5842 5842 5841 5841